User: anonymous   Login
Location: Hamburg
(53.5500°N, 10.0000°E)
Time: 21:35:53
(UTC+01:00)
Language:

Courier 1B - Orbit

View from above orbital plane
View from above orbital plane
View from above satellite
View from above satellite

Ground track
Ground track

The orbit data is extracted from the following two-line orbital elements,

1    58U 60013A   16039.90138998 +.00000101 +00000-0 +19120-4 0  9998
2    58 028.3269 243.7991 0165077 221.1266 137.6732 13.46300205724114
Epoch (UTC): 08 February 2016 21:38:00
Eccentricity: 0.0165077
inclination: 28.3269°
perigee height: 962 km
apogee height: 1209 km
right ascension of ascending node: 243.7991°
argument of perigee: 221.1266°
revolutions per day: 13.46300205
mean anomaly at epoch: 137.6732°
orbit number at epoch: 72411

The dashed part of the orbit path shows where the satellite is in the earth's shadow,  

DLR